Regional Weather Roundup
Issued by NWS Wakefield, VA

Home | Current Version | Previous Version | Graphics & Text | Print | Product List | Glossary On
Versions: 1 2 3 4 5 6 7 8 9 10 11 12 13 14 15 16 17 18 19 20 21 22 23 24 25 26 27 28 29 30 31 32 33 34 35 36 37 38 39 40 41 42 43 44 45 46 47 48 49 50
000
ASUS41 KAKQ 222010
RWRAKQ

REGIONAL WEATHER ROUNDUP
NATIONAL WEATHER SERVICE WAKEFIELD VA
400 PM EDT FRI AUG 22 2014

Note: "fair" indicates few or no clouds below 12,000 feet with no
significant weather and/or obstructions to visibility. * = Denotes
station may not report precipitation (e.g., rain,snow,etc.),
thunder or fog.

VAZ042-051-052>054-056-222100-
NORTHERN VIRGINIA

CITY           SKY/WX    TMP DP  RH WIND       PRES   REMARKS
WASH NATIONAL  CLOUDY    82  69  64 CALM      29.96F
DULLES         PTSUNNY   78  70  76 SW3       29.97F
FORT BELVOIR   MOSUNNY   81  70  69 VRB3      29.97S
QUANTICO       PTSUNNY   80  71  74 W5        29.97F
FREDERICKSBRG* MOSUNNY   80  73  77 NW3       29.95F
STAFFORD*      MOSUNNY   78  77  98 W3        30.00F
WARRENTON      MOSUNNY   81  75  83 SW5       29.97F
CULPEPER*      SUNNY    N/A N/A N/A CALM      29.98F
MANASSAS*      MOSUNNY   81  73  78 W3        29.97F
LEESBURG*      PTSUNNY   81  72  74 CALM      29.98F
WINCHESTER     MOSUNNY   79  68  69 CALM      29.99F
$$

VAZ048-049-060>072-079>083-222100-
CENTRAL AND SOUTH CENTRAL VIRGINIA...AND NORTH CENTRAL NORTH CAROLINA

CITY           SKY/WX    TMP DP  RH WIND       PRES   REMARKS
RICHMOND       CLOUDY    83  68  60 NW6       29.96F
CHESTERFIELD*  CLOUDY   N/A N/A N/A N5        29.97F
HANOVER        PTSUNNY   82  70  66 VRB3      29.98F
TAPPAHANNOCK*  PTSUNNY   79  68  69 NW3       29.96F
CHARLOTTSVILLE MOSUNNY   80  70  71 MISG      29.98F
ORANGE*        MOSUNNY   79  68  69 N3        29.99F
LOUISA*        MOSUNNY   82  70  65 NW5       29.97S
FARMVILLE*     PTSUNNY   84  70  61 NW5       29.95S
SOUTH HILL*    PTSUNNY   82  73  74 CALM      30.01F
ROANOKE RAPIDS MOCLDY    82  72  69 W8        29.95F
RALEIGH        PTSUNNY   88  71  57 N3        29.97F
$$

VAZ088>098-222100-
SOUTHEAST VIRGINIA

CITY           SKY/WX    TMP DP  RH WIND       PRES   REMARKS
NORFOLK        CLOUDY    81  71  71 N7        29.93F
VIRGINIA BEACH CLOUDY    82  72  71 N10       29.93F
NORFOLK NAVAL  CLOUDY    82  70  66 W12       29.95F
WEST POINT*    CLOUDY    82  69  65 NW3       29.96F
NEWPORT NEWS   CLOUDY    85  71  63 N6        29.94F
LANGLEY AFB    PTSUNNY   81  72  74 NW7       29.93F
FORT EUSTIS    PTSUNNY   81  67  61 NW8       29.93F
WILLIAMSBURG*  PTSUNNY   82  73  74 NW3       29.95F
FRANKLIN*      PTSUNNY   82  70  65 CALM      29.95F
WAKEFIELD      LGT RAIN  81  71  71 CALM      29.96F
$$

VAZ020-022-025-037-045-222100-
WESTERN AND SOUTHWEST VIRGINIA

CITY           SKY/WX    TMP DP  RH WIND       PRES   REMARKS
STAUNTON*      CLOUDY    83  68  61 NE9       30.01F
HOT SPRINGS VA CLOUDY   N/A N/A N/A W9        30.16S
LYNCHBURG      CLOUDY    77  72  84 CALM      30.01F
DANVILLE       CLOUDY    82  72  71 N5        30.00F
MARTINSVILLE   CLOUDY    85  76  74 CALM      30.03F
ROANOKE        PTSUNNY   81  69  67 CALM      30.03F
BLACKSBURG     MOSUNNY   82  73  74 W3        30.08F
DUBLIN*        PTSUNNY   84  68  58 W6        30.08S
MARION*        PTSUNNY   80  71  73 SW7       30.13S
HILLSVILLE*    PTSUNNY   81  67  63 W9        30.11F
RICHLANDS*     MOCLDY    84  70  63 W6        30.11F
WISE*          MOSUNNY   84  66  54 W8        30.12F
ABINGDON*      MOSUNNY   86  71  61 W9        30.09F
$$

MDZ021>025-VAZ099-100-222100-
SOUTHERN MARYLAND AND THE DELMARVA PENINSULA

CITY           SKY/WX    TMP DP  RH WIND       PRES   REMARKS
PATUXENT RIVER CLOUDY    81  70  69 NW8       29.95F
BAY BRIDGE APT   N/A     77  70  78 N6        29.96F
LEONARDTOWN    CLOUDY    77  68  73 W7        29.97F
DOVER          CLOUDY    78  70  74 E10       29.96F
GEORGETOWN     PTSUNNY   77  68  73 E14G22    29.96S
EASTON         PTSUNNY   82  73  74 N9        29.99F
CAMBRIDGE      CLOUDY    77  72  83 SE5       29.94S VSB 1/4
SALISBURY      LGT RAIN  77  71  82 E6        29.95S
OCEAN CITY     CLOUDY    77  70  79 E10       29.95S
WALLOPS ISLAND LGT RAIN  76  72  87 E9        29.95R
ACCOMACK*      PTSUNNY   81  70  69 NW7       29.93S
$$

NCZ012>017-030>032-222100-
EASTERN NORTH CAROLINA

CITY           SKY/WX    TMP DP  RH WIND       PRES   REMARKS
ELIZABETH CITY CLOUDY    83  70  64 NW9       29.93F
AHOSKIE*       PTSUNNY   83  72  69 NW3       29.95F
EDENTON*       CLOUDY    86  72  64 NW7       29.94F
CURRITUCK*     CLOUDY    84  68  58 W7        29.94F
KILL DEVIL HLS CLOUDY    83  71  66 W8        29.92S
MANTEO         CLOUDY    84  70  61 NW8       29.93S
CAPE HATTERAS  MOSUNNY   87  74  64 NW8       29.93F HX  95
GOLDSBORO      PTSUNNY   91  76  61 VRB6      29.94F HX 104
WASHINGTON     MOSUNNY   89  73  58 NW7       29.94F HX  96
GREENVILLE     PTSUNNY   90  73  58 N7        29.96F HX  98
NEW BERN       MOSUNNY   93  72  50 NW8       29.95F HX 101
WILMINGTON     PTSUNNY   92  74  55 NE8       29.95F HX 101
$$

VAZ048-222100-
ELSEWHERE

CITY           SKY/WX    TMP DP  RH WIND       PRES   REMARKS
HARRISBURG PA  PTSUNNY   80  69  69 SE6       29.96F
BALTIMORE      CLOUDY    77  69  76 E6        29.96F
ANNAPOLIS        N/A     77  70  79 N6        29.96F
ANDREWS AFB    PTSUNNY   77  72  86 E8        29.97S
WILMINGTON DE  PTSUNNY   78  67  68 E12       29.98F
PHILADELPHIA   CLOUDY    76  66  71 E8        30.00S
WILDWOOD NJ*   PTSUNNY   75  66  73 E10       29.98F
ATLANTIC CITY  CLOUDY    74  65  73 E9        29.99S
HENDERSON NC   PTSUNNY   82  69  64 W6        29.99F
GREENSBORO     CLOUDY    87  70  56 W10       30.00F
ROCKY MOUNT    PTSUNNY   89  70  53 NW9       29.96F
FAYETTEVILLE   PTSUNNY   96  67  38 NW6       29.94F HX 100
CHARLOTTE      PTSUNNY   91  69  48 S8        30.00F HX  96
$$

VAZ100-222100-
MARINE

STATION/POSITION TIME  TEMP    WIND        PRES    WAVE   SWELL
                       AIR SEA DIR/SP/G            HT/PER HT/PER
                 (UTC) (F)     (DEG/KT/KT) (MB)    (FT/S) (FT/S)
44066 TX TWR #4  2000   71 73   50/ 12/ 14 1015.3S   4/ 7   3/ 7
CAPE MAY NJ      2000   76 80   70/  9/ 12 1014.5R
LEWES DE         2000   75 77  100/ 14/ 17 1014.4S
15NM E FENWICK I 2000   75 76              1014.0F   3/ 7
OCEAN-CITY-INLET 2000   76 79   80/ 11/ 14 1013.9S
WACHAPREAGUE VA  2000   82 82  290/  2/  4 1013.5S
THOMAS POINT MD  2000   76 78   20/ 11/ 12 1014.8F
GOOSES REEF MD   2000   77      10/ 12/ 14 1014.8S
COVE POINT MD    2000   76     350/ 12/ 13 1014.2R
SOLOMONS ISLAND  2000      80                N/A
BISHOPS HEAD MD  2000   79 81  300/ 11/ 14 1013.4F
PINEY POINT MD   2000          320/ 13/ 14   N/A
POTOMAC MD       2000   77     330/ 14/ 33 1013.4F
CAMBRIDGE MD     2000   77 79  260/  2/  7 1013.7S
LEWISETTA VA     2000   76 80  340/  7/ 10 1013.9F
RAPPAHANNOCK LGT 2000          310/  8/  9 1014.1F
STINGRAY PT      2000   79     330/  6/  8 1014.5F
YORK RVR RNG VA  2000   80     330/ 10/ 12 1013.4S
YORKTOWN VA      2000   79 81  320/ 12/ 13 1013.6F
JAMESTOWN VA     2000   79     340/  8/ 12   N/A
DOMINION TERM VA 2000   80     310/ 10/ 12 1013.8S
KIPTOPEKE VA     2000      83  340/ 11/ 13   N/A
CHES BAY BRIDGE  2000   79 80  340/  8/ 10 1013.3S
CAPE HENRY VA    2000   79     350/ 10/ 10 1012.5S
CHESAPEAKE LGHT  1900   78     340/ 12/ 12 1014.6F
WILLOUBY STN VA  2000   80     320/  6/  7 1012.6F
S CRANEY ISL VA  2000          310/  5/  8 1013.5S
CAPE HENRY BUOY  1900      78                N/A     2/ 6
1ST LANDING BUOY 2000   80     360/ 10/ 10 1013.3S
CAPE CHARLES BUO 2000      79                N/A     2/ 7   2/ 7
OFFSHORE WE BUOY 2000      78                N/A     2/ 6   2/ 6
64NM E OF VA BCH 2000   78 79  340/ 10/ 10 1012.6F   2/ 7   2/ 7
DUCK PIER NC     2000   80 80   40/  9/ 11 1012.8S
44056 DUCK FRF   2000                        N/A     2/ 7
OREGON INLET NC  2000   85 84  320/  8/ 11 1013.4S
HATTERAS NC      2000   85 84  290/ 11/ 13 1014.0S
DIAMOND SHLS NC  2000   82     270/ 10/ 12 1013.4F   2/ 8   2/ 8
CAPE LOOKOUT NC  1900   85     230/ 11/ 12 1014.2F
$$



USA.gov is the U.S. government's official web portal to all federal, state and local government web resources and services.